レモン彗星

C/2017 F1 ( Lemmon )

English version
Home page
Updated on April 13, 2018

---------------------------------------------------------------------

・ プロフィール

発見日 2017年3月20日
発見光度 21.7等
発見者 G. J. Leonard (Mount Lemmon)

・ 写真集

・ 軌道要素

Epoch 2017 Nov. 23.0 TT = JDT 2458080.5
T 2017 Dec. 1.00031 TT                                  MPCW
q   4.4997822            (2000.0)            P               Q
z  -0.0009783      Peri.   64.81740     -0.12301495     +0.97199967
 +/-0.0000061      Node   158.74254     +0.58787103     -0.09116462
e   1.0044022      Incl.  146.48107     +0.79954673     +0.21657712
From 79 observations 2017 Mar. 20-2018 Feb. 17, mean residual 0".5.

・ 光度変化

        m1 = 10.5 + 5 logΔ + 10.0 log r

---------------------------------------------------------------------

軌道要素はM.P.E.C. 2018-D91に掲載されたものです。
光度グラフはComet for Windowsで作成したものです。

---------------------------------------------------------------------

Copyright(C) Seiichi Yoshida (comet@aerith.net). All rights reserved.